User: anonymous   Login
Location: Kelshall
(52.0000°N, 0.0500°W)
Time: 04:48:08
(UTC+00:00)
Language:

Cosmos 909 Rocket - Orbit

View from above orbital plane
View from above orbital plane
View from above satellite
View from above satellite

Ground track
Ground track

The orbit data is extracted from the following two-line orbital elements,

1 10011U 77036B   20333.59332914 -.00000090 +00000-0 -13568-3 0  9990
2 10011 065.8682 043.4095 0692412 105.2720 354.6941 12.32232592937402
Epoch (UTC): 28 November 2020 14:14:23
Eccentricity: 0.0692412
inclination: 65.8682°
perigee height: 991 km
apogee height: 2088 km
right ascension of ascending node: 43.4095°
argument of perigee: 105.2720°
revolutions per day: 12.32232592
mean anomaly at epoch: 354.6941°
orbit number at epoch: 93740

The dashed part of the orbit path shows where the satellite is in the earth's shadow,  

DLR